Regional Weather Roundup
Issued by NWS Little Rock, AR

Home | Current Version | Previous Version | Graphics & Text | Print | Product List | Glossary On
Versions: 1 2 3 4 5 6 7 8 9 10 11 12 13 14 15 16 17 18 19 20 21 22 23 24 25 26 27 28 29 30 31
000
ASUS44 KLZK 271705
RWRLZK

WEATHER ROUNDUP FOR ARKANSAS
NATIONAL WEATHER SERVICE LITTLE ROCK AR
1100 AM CST MON FEB 27 2017

NOTE: "FAIR" INDICATES FEW OR NO CLOUDS BELOW 12,000 FEET WITH NO
SIGNIFICANT WEATHER AND/OR OBSTRUCTIONS TO VISIBILITY.

ARZ001-003-010-029-271800-
NORTHWEST ARKANSAS

CITY           SKY/WX    TMP DP  RH WIND       PRES   REMARKS
FAYETTEVILLE   RAIN      58  47  66 SE9       30.02F
FORT SMITH     CLOUDY    58  44  60 E13       30.05S
HARRISON       SUNNY     58  40  51 SE9       30.07F
BENTONVILLE    MOSUNNY   61  39  44 SE13      30.03F
ROGERS         MOSUNNY   61  41  47 SE12      30.03F
SILOAM SPGS    PTSUNNY   61  43  51 SE8G18    30.01F
HIGHFILL       MOSUNNY   60  40  47 SE13      30.01F
SPRINGDALE     PTSUNNY   59  41  51 SE7G14    30.04F
$$

ARZ004-005-016-271800-
NORTH CENTRAL ARKANSAS

CITY           SKY/WX    TMP DP  RH WIND       PRES   REMARKS
BATESVILLE     CLOUDY    54  46  76 SE6       30.14S
FLIPPIN        SUNNY     55  39  54 SE6       30.07F
MTN HOME       SUNNY     57  43  59 S10       30.09S
$$

ARZ040-041-271800-
WEST CENTRAL ARKANSAS

CITY           SKY/WX    TMP DP  RH WIND       PRES   REMARKS
MENA           PTSUNNY   59  55  88 NE5       30.06S
MOUNT IDA      CLOUDY    56  53  90 SE6       30.06R
$$

ARZ009-017-025-026-028-271800-
NORTHEAST ARKANSAS

CITY           SKY/WX    TMP DP  RH WIND       PRES   REMARKS
CORNING        FAIR      57  48  72 S7        30.14F
JONESBORO      CLOUDY    55  49  80 S10       30.15R
NEWPORT        CLOUDY    53  48  83 SE9       30.15S
WALNUT RIDGE   PTSUNNY   55  46  71 S13       30.15R
BLYTHEVILLE    SUNNY     58  49  72 S10       30.16S
NW BLYTHEVILLE MOSUNNY   59  50  72 S10       30.15S
$$

ARZ022-023-033-042-044-271800-
CENTRAL ARKANSAS

CITY           SKY/WX    TMP DP  RH WIND       PRES   REMARKS
LITTLE ROCK    CLOUDY    51  51 100 E9        30.12S
N LITTLE ROCK    N/A     52  50  94 E6        30.13S
JACKSONVILLE   CLOUDY    52  51  97 SE6       30.11S
SEARCY         CLOUDY    53  50  89 SE7       30.15S
HOT SPRINGS    CLOUDY    54  53  97 SE7       30.10R
RUSSELLVILLE   CLOUDY    50  47  89 SE5       30.10S
CLINTON        CLOUDY    50  46  87 CALM      30.13R
$$

ARZ036-271800-
EAST ARKANSAS

CITY           SKY/WX    TMP DP  RH WIND       PRES   REMARKS
WEST MEMPHIS   CLOUDY    55  50  83 S7        30.14F
$$

ARZ050-053-066-070-073-271800-
SOUTHWEST ARKANSAS

CITY           SKY/WX    TMP DP  RH WIND       PRES   REMARKS
ARKADELPHIA    CLOUDY    54  53  97 CALM      30.11S
CAMDEN         CLOUDY    63  54  72 SE6       30.10S
TEXARKANA      CLOUDY    57  55  93 SE7       30.07S
EL DORADO      CLOUDY    57  54  89 SE12      30.11R
DE QUEEN       CLOUDY    55  55 100 E7        30.05S
$$

ARZ056-057-069-271800-
SOUTHEAST ARKANSAS

CITY           SKY/WX    TMP DP  RH WIND       PRES   REMARKS
PINE BLUFF     CLOUDY    54  52  93 SE12      30.12F
STUTTGART      CLOUDY    52  45  76 SE12      30.13F
MONTICELLO     CLOUDY    55  52  89 VRB7      30.12F

$$






USA.gov is the U.S. government's official web portal to all federal, state and local government web resources and services.